Location: Dumpton Point
(51.3500°N, 1.4433°E)
Time: 22:22:40
(UTC+00:00)

Vanguard 1 - Pass Details

Date: 03 October 2022
Orbit: 650 x 3831 km, 34.2° (Epoch: 03 December)

Event Time Altitude Azimuth Distance (km) Brightness Sun altitude
Rises 11:17:24 0° 198° (SSW) 7,791 15.5 34.3°
Reaches altitude 10° 11:25:55 10° 182° (S) 6,364 15.6 34.5°
Maximum altitude 11:36:05 17° 150° (SSE) 5,009 14.9 34.6°
Drops below altitude 10° 11:44:00 10° 116° (ESE) 4,814 14.0 34.6°
Sets 11:48:51 0° 98° (E) 5,260 13.9 34.6°
